User: anonymous   Login
Location: Deer Lodge Site
(39.6809°N, 119.9392°W)
Time: 15:23:48
(UTC-07:00)
Language:

CZ-4C R/B - Orbit

View from above orbital plane
View from above orbital plane
View from above satellite
View from above satellite

Ground track
Ground track

The orbit data is extracted from the following two-line orbital elements,

1 36416U 10009D   15149.14749965 -.00000051  00000-0  36928-4 0  9994
2 36416 063.4454 113.9741 0313477 358.8733 001.1564 13.69467363261651
Epoch (UTC): 29 May 2015 03:32:23
Eccentricity: 0.0313477
inclination: 63.4454°
perigee height: 770 km
apogee height: 1233 km
right ascension of ascending node: 113.9741°
argument of perigee: 358.8733°
revolutions per day: 13.69467363
mean anomaly at epoch: 1.1564°
orbit number at epoch: 26165

The dashed part of the orbit path shows where the satellite is in the earth's shadow,  

DLR